STARLINK-32856, 62819

Orbit data source: Space-Track

STARLINK-32856, 62819 is a payload satellite owned by SpaceX/Seattle (US) in LEO that was launched on Fri, 24 Jan 2025 UTC via an FALCON 9 launch vehicle from the Air Force Western Test Range (AFWTR). Payload-class satellites include a variety of spacecraft equipped with specific instruments for various scientific and technological missions. These include communications satellites like Starlink; space stations such as the ISS; scientific satellites like the Hubble; Earth observation satellites from companies like Planet Labs, Umbra, and HawkEye 360; GPS; miniature CubeSats for education and research; and military/defense satellites.

Loading next visibility...
Identifier
62819, 2025-018P
Orbit
LEO
Last TLE update
14 hours ago
Origin
Manufacturer
SpaceX/Seattle
Mission
Operational Commercial Communications
Bus & Motor
STARLINK V2M, Unknown motor
Mass
730 kg wet, ~700 kg dry
Launch date (UTC)
2025-01-24 (3 months ago)
Launch vehicle
FALCON 9
Launch site
Air Force Western Test Range (AFWTR)
Object type
Payload
Rocket body
Debris
Shape & HBR
Box + 2 Pan, 29 m
Radar Cross Section
33.884 m², Large (>1 m²)

Expand to show TLE details & history

TLE from 14 hours ago
0 STARLINK-32856
1 62819U 25018P   25128.65740736  .00000346  00000-0  18623-4 0  9995
2 62819  53.1623 288.0708 0001271 108.9884 251.1258 15.39619179 16451
Epoch: 2025-05-08T15:46Z
Definitive object data (Epoch: 2025-05-08T15:46:39.995Z)
Latitude
-0.0001°
Longitude
-175.32068°
Altitude
448.419 km
Speed
7.644 km/s
True Right ascension
19h 12m 16s
True Declination
0° 00' 00"
Sunlit
Object was in full shadow at TLE epoch
Visualization TLE readout
Latitude
-52.22644°
Longitude
107.97929°
Altitude
466.205 km
Speed
7.633 km/s
Apparent Right ascension
23h 09m 40s
Apparent Declination
-84° 29' 20"
Sunlit
Object is in full shadow
Visualization observer readout
Local Sidereal Time
13:35:46
Azimuth
175.422° S
Elevation
-44.258°
Doppler factor
1
Orbital elements
Apogee altitude
448.359 km
Perigee altitude
446.624 km
Semi-major axis
6,825.629 km
Eccentricity
0.0001271
Inclination
53.1623°
RAAN
288.0708°
Arg. of periapsis
108.9884°
True anomaly
251.11202°
Mean anomaly
251.1258°
Eccentric anomaly
251.11891°
Mean motion
3.84883 °/min
BSTAR
0.000018623
Orbital period
93.53 mins
Loading maneuver chart data...
Loading SW <> Apogee altitude chart data...
Loading historical data...
Loading historical data...
Loading historical data...
Loading historical data...
Loading historical data...
Loading historical data...
Loading historical data...

STARLINK-32856 Visibility forecast

Observer location: undefined°, undefined°

Span
Click to sort rows by Start time (UTC) header in descending order
Start Az.
Max El. time (UTC)
Max El. Az.
Max El.
End time (UTC)
End Az.
4 mins2025-05-09 12:11:05.721Z171.348° S2025-05-09 12:13:05.721Z133.94° SE17.661°2025-05-09 12:15:05.721Z92.497° ESE
5 mins2025-05-09 13:48:05.721Z256.869° W2025-05-09 13:50:05.721Z309.835° NW35.435°2025-05-09 13:53:05.721Z36.577° NE
5 mins2025-05-09 20:21:05.721Z293.479° NW2025-05-09 20:23:05.721Z201.268° SSW39.491°2025-05-09 20:26:05.721Z144.902° SSE
|